Location: Martz Observatory
(42.0083°N, 79.0667°W)
Time: 04:34:31
(UTC-04:00)

Meteor 1-23 Rocket - Visible Passes

Search period start: 05 May 2016 00:00
Search period end: 15 May 2016 00:00
Orbit: 840 x 886 km, 81.3° (Epoch: 04 May)

Date Brightness Start Highest point End Pass type
(mag) Time Alt. Az. Time Alt. Az. Time Alt. Az.
05 May 6.1 01:42:40 19° WNW 01:43:01 19° WNW 01:47:00 10° NNW visible
05 May 4.6 23:51:54 51° ENE 23:51:54 51° ENE 23:56:34 10° NNE visible
06 May 6.1 01:34:09 19° WNW 01:34:41 20° WNW 01:38:42 10° NNW visible
06 May 4.5 23:43:22 53° ENE 23:43:22 53° ENE 23:48:14 10° NNE visible
07 May 6.0 01:25:37 19° WNW 01:26:21 20° WNW 01:30:24 10° NNW visible
07 May 4.4 23:34:49 54° ENE 23:34:49 54° ENE 23:39:55 10° NNE visible
08 May 6.1 01:17:04 19° W 01:18:01 20° WNW 01:22:05 10° NNW visible
08 May 4.4 23:26:14 54° E 23:26:14 54° E 23:31:35 10° NNE visible
09 May 6.1 01:08:28 19° W 01:09:40 20° WNW 01:13:47 10° NNW visible
09 May 4.3 23:17:37 54° ESE 23:17:47 54° E 23:23:15 10° NNE visible
10 May 6.1 00:59:52 19° W 01:01:21 21° WNW 01:05:29 10° NNW visible
10 May 4.3 23:08:59 52° ESE 23:09:28 53° E 23:14:55 10° NNE visible
11 May 6.1 00:51:13 18° W 00:53:00 21° WNW 00:57:11 10° NNW visible
11 May 4.3 23:00:18 48° SE 23:01:08 53° E 23:06:36 10° NNE visible
12 May 6.1 00:42:33 17° W 00:44:40 21° WNW 00:48:52 10° NNW visible
12 May 4.4 22:51:36 44° SE 22:52:49 52° E 22:58:16 10° NNE visible
13 May 6.2 00:33:51 16° W 00:36:20 21° WNW 00:40:34 10° NNW visible
13 May 4.4 22:42:52 39° SE 22:44:29 51° E 22:49:56 10° NNE visible
14 May 6.2 00:25:06 15° WSW 00:28:00 22° WNW 00:32:16 10° NNW visible
14 May 4.4 22:34:05 34° SSE 22:36:09 51° E 22:41:36 10° NNE visible
